Wind_Speed
35 34 34 35 35 34 34 33 33 33 32 32 31 31 30 30 30 30 30 29 29 29 28 27 26 25 24 24 24 23 23 22 22 22 20 19 22 23 21 21 22 22 21 20 19 20 21 22 23 24 24 24 24 24 24 23 22 22 22 23 25 24 24 27 24 22 20 18 21 25 26 24 24 24 22 20 23 27 26 27 29 30 31 31 31 33 34 36
36 35 35 35 35 35 35 34 34 34 33 33 32 31 31 31 31 31 31 30 30 30 29 29 28 27 26 25 26 25 25 24 24 23 19 19 23 24 23 23 23 24 23 22 21 21 22 23 23 24 24 25 25 25 25 24 23 23 23 23 26 24 25 28 25 23 22 19 20 23 25 27 26 24 23 19 19 25 26 26 28 30 31 31 32 33 34 36
38 37 36 36 36 36 35 35 35 34 34 34 33 32 31 31 31 31 31 31 31 31 30 30 29 28 27 27 27 27 26 26 25 24 21 21 23 24 24 25 25 25 25 24 23 22 23 23 24 24 25 26 25 26 26 25 24 24 24 24 26 24 26 30 26 25 25 21 20 22 23 27 28 25 25 21 19 23 25 26 27 28 29 30 32 32 34 36
39 38 38 37 37 37 36 36 35 35 35 34 34 33 32 32 32 32 32 32 32 31 31 30 30 29 28 28 28 28 28 28 27 25 23 23 24 25 25 26 26 26 27 26 25 24 25 25 26 26 26 26 26 27 27 27 25 24 25 26 27 25 26 31 28 26 27 24 22 21 21 26 28 25 26 25 22 22 24 26 27 26 28 29 31 32 33 35
41 40 39 39 38 38 38 37 36 36 36 35 34 34 34 34 34 33 33 33 32 32 32 31 31 30 29 29 30 30 30 30 28 26 25 25 26 26 26 26 27 28 28 27 27 27 27 27 27 27 26 27 28 28 28 28 26 24 26 27 27 25 26 30 30 28 28 26 25 23 20 24 27 24 26 27 24 24 25 27 28 27 27 27 29 31 33 35
43 41 41 40 39 39 39 39 39 38 37 36 35 35 35 35 35 35 34 34 33 33 33 32 32 31 30 30 31 31 32 32 29 27 26 28 28 28 27 27 28 29 29 28 28 28 29 29 29 28 27 28 29 29 29 29 28 25 26 28 27 26 26 29 30 29 29 27 26 24 20 25 28 23 25 27 25 25 26 28 29 28 28 28 27 28 31 33
44 43 42 41 41 41 40 40 40 40 39 38 37 37 36 36 36 36 36 35 34 34 34 34 34 33 32 31 32 32 35 35 31 28 29 30 30 29 28 28 29 29 29 29 29 29 30 30 30 29 28 29 29 30 31 30 29 27 26 28 27 28 28 28 29 30 30 28 27 24 20 26 31 26 24 26 24 24 27 28 30 29 28 29 28 28 29 31
46 45 44 43 43 43 42 42 42 41 41 40 39 39 38 38 38 38 38 37 36 35 35 35 34 35 34 33 33 33 37 37 32 31 32 32 32 32 31 30 29 30 30 30 31 30 31 31 30 30 29 30 30 31 33 31 30 29 28 27 27 28 29 29 29 30 30 29 29 23 20 26 33 30 25 24 23 23 26 28 30 29 28 29 29 29 29 30
48 47 46 46 45 45 45 44 43 43 42 41 41 41 40 40 39 39 39 39 38 37 36 36 35 36 35 35 34 34 39 39 34 33 33 34 34 34 32 31 30 31 31 32 32 32 32 32 31 31 31 30 31 32 33 33 32 31 31 29 28 28 29 30 30 30 31 31 30 23 19 26 34 34 30 25 23 23 24 28 31 29 27 28 29 30 30 29
49 49 48 48 48 47 47 46 46 45 44 43 43 42 42 41 41 41 41 40 40 39 38 37 36 37 37 37 35 35 42 40 36 35 35 36 36 35 34 33 32 32 32 33 34 34 34 34 33 34 33 32 31 32 34 34 32 32 33 31 30 29 29 31 31 30 33 33 31 24 17 24 33 36 34 27 23 23 22 26 31 30 28 28 29 29 29 30
50 50 51 50 49 49 49 48 47 47 46 45 44 44 44 44 44 43 42 42 41 41 40 39 38 38 38 37 35 39 44 40 38 39 38 37 37 36 36 34 34 34 34 35 35 35 35 35 35 36 36 34 33 33 34 35 34 34 35 33 31 31 29 31 33 31 34 35 34 28 17 20 31 36 39 32 24 23 22 25 30 31 28 28 28 28 29 30
52 53 53 52 52 51 50 50 49 48 47 47 46 46 46 46 46 46 45 44 42 43 42 41 41 40 40 37 37 43 45 41 40 41 40 40 39 38 38 37 37 37 37 37 36 36 37 37 37 37 37 36 35 35 36 35 35 36 37 36 32 31 31 31 34 34 36 37 38 34 20 17 27 33 40 38 30 26 23 25 30 31 30 28 27 26 27 29
55 55 55 55 54 53 52 51 51 50 49 48 48 47 48 48 49 49 49 47 45 45 43 43 43 42 41 37 39 46 45 42 43 44 44 42 41 41 41 41 40 40 39 39 38 38 38 39 38 38 39 38 37 37 37 36 37 38 40 41 36 31 30 31 35 35 36 39 40 40 25 14 21 30 37 40 36 30 24 24 29 31 31 29 27 25 25 28
58 58 57 57 56 55 54 53 52 51 51 50 49 50 50 50 51 51 51 50 49 47 46 46 45 44 43 38 41 47 46 44 44 45 45 44 43 44 43 43 43 42 42 41 41 41 40 40 40 39 39 39 39 39 38 37 38 40 41 43 40 34 30 31 35 35 37 40 42 44 33 15 16 28 34 37 38 33 25 23 28 31 31 31 27 24 24 26
58 58 57 57 57 56 55 54 54 53 52 52 52 52 52 52 52 52 53 53 51 50 49 49 48 47 45 40 42 47 47 46 46 45 46 45 45 45 45 45 44 44 44 44 43 43 43 42 42 41 40 40 40 39 39 38 39 42 45 44 41 37 34 33 36 37 38 42 44 45 40 22 14 24 32 35 38 35 26 23 28 30 31 33 29 25 24 25
55 56 55 55 55 55 55 54 54 53 53 53 53 52 52 52 52 52 53 54 54 53 52 52 50 50 48 43 44 47 48 48 48 46 46 47 47 47 47 47 46 46 46 46 46 45 45 44 44 43 42 40 40 39 40 41 41 44 47 45 40 39 37 34 34 38 40 44 46 45 43 31 18 19 27 34 38 35 27 25 27 30 32 34 31 26 25 25
52 53 54 54 55 55 55 54 53 53 53 53 54 54 54 54 53 52 52 53 54 54 54 53 52 51 49 47 46 48 49 49 49 49 48 48 48 47 48 48 48 48 48 48 48 47 46 47 47 45 44 41 39 40 42 44 44 45 47 45 42 40 40 36 32 37 42 46 47 45 44 38 25 19 23 30 38 35 28 26 27 29 32 35 32 27 26 25
47 49 51 53 55 56 56 56 55 55 55 55 56 56 57 57 57 56 54 53 53 54 54 54 54 53 51 49 48 48 49 50 50 51 51 50 49 49 49 50 49 49 49 49 48 48 48 48 48 47 45 42 40 43 46 46 46 46 46 45 44 42 41 38 34 37 43 47 48 44 42 40 30 23 23 28 36 35 28 27 27 29 32 33 32 28 26 26
45 46 47 49 50 53 55 56 56 55 55 55 56 57 58 59 60 59 58 56 54 53 53 55 56 55 54 52 50 50 50 50 51 52 52 51 51 50 50 50 50 51 50 49 49 49 50 49 49 47 44 42 44 46 47 46 47 47 47 46 46 45 42 38 37 41 45 48 48 43 41 39 31 24 24 27 34 36 31 28 27 28 31 31 31 29 27 26
47 47 47 47 47 48 49 51 52 53 54 55 57 57 58 59 60 60 60 59 57 55 55 55 56 56 55 54 52 52 52 53 54 53 53 53 52 52 52 52 51 52 51 49 50 50 50 50 48 45 42 43 47 48 47 46 47 47 47 47 47 47 44 39 40 43 46 48 46 42 40 38 31 24 24 28 33 34 32 29 27 28 30 30 30 30 27 26
50 50 50 49 48 48 49 50 50 52 54 55 56 56 57 57 58 58 59 59 57 56 56 55 57 56 54 54 54 54 54 55 55 55 54 53 52 52 51 50 49 49 49 49 50 49 49 50 46 42 43 47 48 47 47 47 47 48 47 48 48 48 46 43 43 44 46 48 46 44 41 36 30 23 24 28 32 33 31 30 28 27 30 30 29 29 28 27
52 53 54 53 52 51 51 52 52 53 54 54 54 55 56 56 56 57 58 58 56 56 57 55 56 55 53 54 55 55 56 55 53 53 53 52 51 50 48 47 47 46 47 49 49 48 49 49 45 44 46 48 47 47 48 48 48 48 48 49 49 47 46 46 45 45 47 48 46 45 43 38 30 24 24 27 30 33 32 29 26 27 30 30 29 29 29 29
54 54 55 56 55 55 55 55 54 55 55 54 54 54 56 57 56 56 57 57 55 54 55 55 54 53 53 54 56 57 57 53 51 51 53 52 51 49 47 47 47 47 47 47 47 48 50 49 47 48 48 46 47 48 49 49 49 48 48 50 49 46 47 48 46 46 47 47 47 46 46 42 34 27 26 26 29 32 32 28 25 26 28 29 29 30 29 29
56 56 56 56 56 56 57 57 58 59 59 58 56 56 58 59 59 58 58 59 56 51 51 52 53 52 52 53 55 55 54 51 51 51 51 52 51 49 48 48 47 47 46 45 45 48 50 49 48 48 47 47 48 48 49 49 48 48 49 49 48 47 48 49 48 48 46 46 47 47 49 48 39 31 27 25 28 32 33 29 25 26 27 28 29 30 29 29
59 59 59 59 59 58 57 58 59 61 61 61 60 59 61 63 64 63 61 61 59 53 51 51 52 53 52 53 53 52 52 52 52 50 50 50 51 50 49 48 47 45 44 44 45 47 49 48 47 47 47 48 49 48 47 47 47 48 48 48 48 48 49 50 50 50 49 47 46 47 51 53 45 35 27 27 30 32 33 31 27 27 27 28 29 29 29 29
62 62 62 62 61 61 61 60 60 61 62 62 61 60 62 64 66 66 64 63 62 58 55 54 54 55 54 54 53 54 57 57 53 51 50 49 49 49 48 47 46 45 44 44 46 48 48 46 46 48 48 49 49 47 46 47 49 49 48 47 48 49 50 51 51 51 51 50 48 47 49 53 52 41 28 28 32 31 31 33 32 29 28 29 28 28 29 30
62 63 63 63 63 63 63 62 61 62 62 61 60 60 60 60 61 61 60 62 62 61 60 59 58 57 57 57 57 58 60 60 56 53 49 47 46 47 47 47 46 46 45 47 49 50 49 47 48 49 49 50 49 47 46 49 51 50 48 48 49 50 51 51 51 51 51 51 51 49 46 50 56 50 35 29 30 28 28 32 34 33 32 30 28 28 29 31
62 62 62 62 62 62 63 63 63 62 61 60 59 59 59 59 59 57 57 61 64 64 63 64 64 61 59 60 60 61 61 59 57 55 51 49 47 47 47 47 47 47 47 51 53 53 52 52 50 50 50 50 47 46 48 50 50 50 49 49 49 49 50 50 50 51 51 51 52 49 44 47 54 55 45 34 29 27 27 30 33 35 34 32 30 30 31 33
62 61 60 60 59 60 61 62 62 61 60 58 56 56 56 57 58 56 57 64 68 69 67 68 69 67 64 64 65 65 63 60 58 55 53 51 49 48 48 48 50 51 52 54 56 54 53 52 51 50 49 47 47 49 49 49 49 49 49 49 49 49 49 49 50 50 51 52 53 47 43 46 53 57 52 39 32 28 26 28 32 33 34 34 34 33 33 34
60 60 60 60 59 59 59 60 60 60 59 57 55 54 52 54 56 53 56 66 71 71 71 72 72 70 67 67 67 67 65 62 58 55 53 52 50 50 51 51 53 54 54 55 55 53 51 52 51 50 49 48 49 50 48 48 48 48 48 48 48 48 48 49 50 51 52 53 51 46 44 46 52 58 54 44 38 33 28 29 31 31 33 35 36 36 36 37
59 59 59 59 59 59 58 59 59 59 58 56 54 54 52 52 56 56 60 67 68 68 70 70 70 70 66 63 61 61 61 60 58 55 54 54 53 53 53 53 52 53 53 54 52 50 50 51 51 49 48 48 48 47 47 48 47 46 47 47 48 49 50 52 52 52 54 53 49 48 48 50 54 58 55 48 45 40 34 32 32 33 34 35 36 37 38 39
58 59 59 59 58 58 57 57 58 58 58 57 55 54 53 53 58 62 64 63 61 64 66 65 66 66 63 59 55 54 54 55 55 55 54 55 55 54 52 51 51 51 53 52 50 49 49 48 48 48 48 46 46 47 47 47 47 48 49 50 50 51 53 55 55 54 54 52 51 53 54 57 58 57 54 52 48 44 40 37 35 36 36 37 38 39 41 41
58 58 58 58 58 58 57 56 57 57 58 59 56 54 53 57 63 65 63 60 61 64 63 62 63 63 62 61 57 55 54 54 54 54 54 54 54 53 51 50 50 50 51 51 50 50 50 48 47 48 48 47 46 46 47 48 48 49 51 51 52 53 55 56 56 56 56 55 55 57 59 62 60 57 56 54 50 47 44 41 40 39 39 40 41 42 43 42
59 59 59 59 58 59 58 57 58 57 58 59 58 56 56 62 67 66 64 63 63 62 61 61 62 63 63 62 60 58 57 56 56 56 55 55 54 54 52 50 49 49 48 49 50 50 51 50 47 46 47 47 47 46 46 47 48 49 50 52 54 54 54 54 54 56 58 59 60 61 63 64 61 58 58 55 53 50 46 44 44 43 42 43 43 43 43 42
62 61 61 61 61 61 60 60 60 59 59 60 60 59 61 66 67 65 64 64 63 62 62 62 62 63 64 62 61 61 60 59 59 59 58 57 57 56 55 53 52 51 50 50 50 50 52 52 49 48 49 48 47 47 47 47 48 50 51 53 54 52 49 51 53 56 58 61 63 64 65 65 61 59 57 55 54 52 47 45 44 43 45 46 45 44 43 43
65 64 64 63 63 63 62 62 62 62 62 62 64 65 66 67 65 63 63 63 63 64 63 63 63 64 64 63 62 61 61 61 61 60 60 59 60 59 58 57 55 54 52 52 52 52 55 56 54 54 53 51 50 50 50 51 52 53 53 53 52 50 49 52 55 56 58 61 64 65 66 64 62 61 57 54 53 51 48 46 44 44 46 46 46 46 46 46
68 67 66 65 66 65 64 64 64 64 64 65 68 69 67 66 64 63 63 63 65 66 64 64 65 64 65 65 64 61 61 62 63 63 62 62 63 62 61 59 57 57 55 54 54 55 58 60 59 58 57 55 54 54 54 55 55 56 56 53 52 52 53 55 57 58 58 61 64 65 66 65 64 62 57 52 51 50 49 49 48 46 45 46 46 47 48 47
69 69 68 67 68 67 66 66 66 66 66 68 71 71 68 67 64 64 64 63 66 68 67 68 67 66 66 66 65 63 62 64 65 66 65 64 65 65 63 61 59 58 56 56 59 60 61 63 62 61 61 60 59 58 58 58 58 57 56 54 54 56 57 57 58 58 58 61 64 65 65 65 63 60 55 50 49 49 50 50 50 48 46 46 47 48 49 49
71 71 69 69 69 68 68 68 68 69 70 71 73 72 70 67 64 64 65 65 67 69 70 70 69 68 68 68 66 66 66 67 67 68 67 68 69 68 65 63 61 60 58 59 61 62 62 65 66 66 66 65 65 65 64 62 59 57 56 56 57 59 60 60 60 60 60 62 64 64 65 64 61 56 52 48 46 47 48 49 51 49 47 48 49 50 50 50
74 73 70 70 70 69 69 70 70 72 74 74 73 72 70 68 66 66 66 67 69 70 71 72 72 72 72 71 70 69 69 70 70 70 70 70 71 70 68 66 64 62 59 59 60 61 63 66 68 67 68 70 70 69 67 63 59 58 58 59 60 61 61 62 62 63 63 62 62 63 63 65 62 54 48 47 46 45 46 46 47 48 47 47 49 50 51 50
76 75 72 71 72 70 70 71 72 73 74 74 73 71 70 70 70 68 67 68 69 70 72 73 74 74 75 74 74 73 73 74 74 74 73 73 72 72 70 68 66 63 61 61 61 61 62 64 64 65 69 73 73 70 67 65 63 63 64 64 63 63 62 63 65 65 64 64 63 62 63 66 65 53 47 48 46 43 44 44 44 45 45 45 47 49 51 51
79 77 74 74 75 73 73 74 74 74 76 75 73 72 71 71 70 69 69 70 70 71 72 74 75 75 75 75 75 75 76 77 77 77 77 76 74 73 72 70 69 68 67 66 65 64 64 64 64 67 71 72 71 69 68 68 68 68 69 68 66 66 64 65 68 66 65 66 64 63 65 68 65 53 47 49 46 42 44 44 43 43 42 43 45 47 50 51
81 79 78 78 78 77 77 77 76 77 78 76 74 73 73 73 72 71 71 72 72 73 74 75 75 76 76 76 76 77 78 79 80 79 79 79 78 76 74 73 73 72 72 72 72 70 69 68 67 70 73 72 72 72 72 72 73 74 75 73 70 69 67 68 68 67 67 68 66 67 71 71 66 54 50 53 50 45 45 44 42 42 41 42 44 46 48 50
84 83 82 82 82 81 81 81 79 80 80 78 77 77 75 75 75 74 74 74 74 75 75 75 75 76 76 76 77 78 79 80 82 81 80 80 80 78 76 77 77 77 76 76 75 73 70 69 69 70 72 74 75 77 78 79 80 80 78 74 71 70 68 68 69 68 70 70 68 71 75 73 66 57 55 58 56 49 46 46 45 44 43 42 43 44 46 48
87 87 86 86 86 86 85 83 82 83 83 82 82 81 79 80 78 76 76 77 77 78 79 78 77 77 78 77 78 79 79 81 83 83 82 81 80 78 77 75 73 73 74 75 75 75 72 70 69 69 72 75 78 79 79 79 79 78 76 73 71 70 68 68 68 68 71 71 70 74 77 72 66 60 57 58 56 51 48 47 47 45 44 42 42 44 45 45
90 90 90 89 90 90 89 87 87 87 86 85 85 85 84 83 81 79 79 80 80 80 82 82 81 81 81 80 80 81 81 81 83 84 83 83 82 80 80 77 73 70 69 67 64 64 66 65 65 65 68 71 72 72 72 72 73 74 74 73 71 70 69 69 70 71 73 73 75 76 75 72 69 64 59 56 55 53 50 49 50 49 48 46 45 45 45 43
93 93 92 92 92 94 93 90 90 90 89 89 89 89 87 86 85 83 83 84 84 83 85 85 85 85 84 84 84 85 84 84 85 86 86 86 85 84 83 83 80 77 76 72 65 60 60 61 62 63 65 65 64 64 65 66 69 70 71 72 71 70 70 70 72 74 72 74 78 78 75 75 73 66 61 59 57 54 51 51 54 54 52 50 49 48 47 46
94 94 94 93 94 96 96 93 92 93 93 92 93 92 90 89 89 87 86 87 88 88 89 89 88 88 88 88 88 89 88 88 88 89 89 89 89 87 86 85 84 82 81 81 79 74 70 69 66 66 68 66 63 63 64 65 67 69 70 72 72 71 70 70 71 73 73 76 80 77 73 74 72 66 64 63 60 56 55 57 58 57 55 54 54 53 52 50
94 95 95 96 97 98 97 96 96 96 96 96 96 95 93 92 92 90 89 91 92 91 91 92 91 91 91 91 92 92 91 91 92 92 92 93 93 92 91 89 87 86 85 85 85 84 83 82 78 77 78 75 71 69 68 68 69 69 69 69 70 69 69 70 72 73 74 78 78 74 73 74 71 67 65 63 58 56 59 61 60 58 58 58 58 58 56 55
94 95 95 95 97 98 98 98 98 98 98 98 97 97 96 94 94 92 92 93 94 93 92 92 93 94 93 93 93 93 93 93 94 95 94 95 96 95 94 93 91 89 89 88 88 88 88 88 85 83 84 84 82 80 78 77 76 76 74 71 69 69 72 75 76 76 76 78 76 74 75 76 71 66 64 61 59 59 62 64 63 61 62 62 62 62 61 61
92 91 91 92 94 97 97 97 98 98 99 100 100 99 98 97 95 94 92 93 93 93 94 93 94 95 94 94 94 95 95 95 96 97 96 97 98 97 96 96 95 94 93 92 91 91 91 90 89 86 87 90 88 86 86 84 82 82 80 77 75 76 79 81 80 78 77 78 77 77 79 78 71 65 63 62 61 62 62 62 62 61 61 62 64 65 66 66
89 89 89 88 90 94 95 95 97 98 99 100 99 98 97 96 96 95 94 94 93 92 92 92 93 94 94 94 95 95 96 97 97 98 98 98 99 99 98 98 98 97 96 95 94 94 94 94 93 90 92 94 92 90 92 90 87 85 83 81 81 82 81 81 81 80 79 79 80 82 81 77 70 66 65 64 62 61 60 59 59 61 62 64 65 66 67 68
Wind_Direction
254 255 255 256 257 258 259 259 260 261 262 262 262 263 264 266 267 268 269 269 269 269 269 268 268 268 268 268 268 268 268 267 268 269 275 278 277 278 278 276 275 275 274 274 275 277 279 281 282 283 283 282 281 281 281 282 283 283 284 285 284 286 288 287 289 291 291 295 298 299 302 303 301 307 315 321 320 319 324 324 325 329 331 336 338 339 338 335
253 254 255 255 256 257 258 259 260 261 262 262 262 263 264 265 266 267 268 268 269 270 270 269 269 269 269 269 269 269 269 268 267 268 272 272 274 277 277 277 276 276 277 276 275 276 278 279 281 282 282 281 281 281 281 281 283 283 283 285 285 287 289 287 290 292 292 295 297 298 303 304 304 309 313 320 320 315 320 320 321 327 330 334 336 339 338 336
253 254 255 255 256 257 258 258 259 260 261 262 262 262 264 264 265 266 267 268 269 270 270 270 270 270 270 270 270 270 270 269 269 271 272 268 269 272 274 277 277 278 278 278 278 278 278 278 279 280 280 281 281 281 281 281 282 283 284 285 285 289 290 288 291 294 293 296 295 296 302 303 304 311 314 319 321 314 316 315 317 323 328 332 335 339 339 337
253 253 254 255 255 256 257 258 259 259 260 261 261 262 263 264 265 265 266 267 268 269 270 271 271 270 271 271 271 271 270 270 271 272 273 271 269 269 271 274 276 277 279 280 281 279 277 276 277 278 279 280 281 281 281 281 282 283 285 285 285 288 289 289 292 294 293 296 294 294 301 301 302 309 312 316 321 317 315 314 317 323 327 331 333 337 339 338
253 254 254 255 255 256 257 257 258 258 259 260 261 262 263 263 264 265 266 266 267 268 269 270 270 270 271 272 272 272 272 271 271 273 274 273 270 269 271 273 275 276 278 280 281 280 279 277 277 277 279 280 280 281 281 282 283 284 285 285 286 287 288 289 292 293 293 295 294 295 302 300 299 306 309 313 319 318 316 314 318 325 328 331 332 334 337 338
252 253 254 255 256 256 257 257 258 258 259 259 260 261 262 263 264 265 266 266 266 267 268 268 269 270 270 271 272 273 273 272 272 273 272 271 270 271 272 273 273 275 278 280 280 280 280 280 278 278 278 278 279 280 280 281 283 284 284 284 286 287 287 287 290 292 291 293 293 295 303 299 297 302 305 309 316 318 317 314 317 325 329 332 335 335 337 338
249 250 252 253 255 256 256 257 257 258 258 259 259 260 261 261 262 264 265 266 266 266 267 267 268 269 269 270 272 273 273 272 273 272 271 271 272 272 272 271 272 274 276 277 278 278 279 280 280 280 279 278 279 279 280 281 282 282 282 283 286 287 286 285 287 288 290 291 291 295 303 297 295 297 300 305 314 317 315 313 315 324 329 332 336 337 338 338
247 248 250 251 253 254 255 256 257 257 258 258 258 259 259 260 261 262 263 264 265 265 266 266 267 267 268 269 270 272 273 272 272 272 272 273 273 272 271 272 273 274 275 275 275 276 277 279 280 281 279 278 279 279 280 282 283 283 281 281 283 285 286 287 287 288 289 290 291 297 303 296 294 295 298 303 311 315 314 312 314 322 328 330 335 336 337 339
247 248 250 251 251 252 253 254 255 256 256 257 257 258 259 259 260 260 261 262 263 264 264 265 266 266 267 267 269 272 273 272 272 272 273 273 273 273 273 274 274 275 275 275 275 276 277 278 279 279 279 279 280 280 281 282 283 284 284 284 284 284 286 288 289 290 291 291 292 298 304 297 294 296 299 304 310 313 314 312 312 319 326 330 335 336 335 337
249 250 251 251 251 252 253 253 254 254 255 256 257 258 259 259 259 260 260 261 261 262 262 263 264 265 266 267 268 271 270 272 274 272 271 272 273 274 275 276 276 275 274 275 276 277 278 279 279 279 280 280 281 281 282 282 283 283 284 285 285 285 287 289 291 292 292 292 292 296 303 296 293 296 298 303 309 310 313 312 311 316 324 330 335 335 332 334
248 250 251 251 251 252 252 253 253 254 255 256 257 258 259 260 260 260 260 260 261 261 262 263 263 264 265 267 270 268 268 272 274 273 271 271 272 274 275 275 275 274 274 275 276 278 279 279 280 280 281 282 283 282 282 282 283 283 283 284 285 286 288 289 291 292 291 292 292 293 301 295 294 298 299 304 309 310 314 313 311 315 322 330 333 332 329 330
246 248 249 250 251 252 252 253 253 253 254 255 256 258 259 260 260 261 260 260 260 260 261 262 263 264 265 267 269 266 268 272 273 273 273 273 273 273 274 274 274 275 276 276 277 279 279 279 280 281 283 283 283 282 281 283 284 284 283 281 281 284 288 290 290 291 291 292 291 292 298 297 296 299 301 307 312 313 318 314 311 314 319 326 330 330 326 327
247 248 249 250 251 252 252 253 253 254 254 255 256 257 259 260 261 262 261 260 260 260 260 260 261 262 263 265 266 265 268 271 272 272 273 274 275 274 273 274 275 276 276 277 278 278 278 279 280 281 282 283 283 282 282 284 285 284 283 281 280 281 286 288 288 290 291 291 290 291 294 296 296 295 297 305 309 312 319 316 311 313 316 320 326 327 324 325
252 251 251 252 252 252 253 254 254 254 254 256 257 259 260 261 262 263 262 261 260 260 260 260 260 260 261 262 263 264 267 268 269 271 272 273 273 273 274 274 275 276 277 278 278 278 279 279 280 281 281 282 283 283 284 285 285 284 281 280 282 284 285 285 285 287 288 287 287 288 290 292 292 291 295 300 303 309 318 316 310 311 312 314 321 326 324 325
256 255 255 255 255 255 255 255 254 254 255 256 258 259 260 262 263 264 263 262 260 260 260 261 261 261 261 262 262 263 266 267 267 268 269 271 271 272 273 273 274 276 277 278 279 280 280 280 281 281 281 281 282 283 285 285 283 282 279 280 285 288 288 286 286 287 286 285 285 286 289 295 293 290 295 297 297 304 315 315 310 310 309 309 316 323 324 325
258 258 258 259 259 259 259 257 255 255 256 257 258 259 261 263 264 264 264 263 262 260 260 261 262 262 263 263 262 263 264 266 267 267 267 268 269 271 272 272 274 275 276 277 279 281 282 282 281 281 281 281 283 286 286 284 281 280 280 283 287 288 287 286 288 288 286 284 284 286 291 297 296 290 293 294 294 300 310 312 309 308 305 305 312 321 324 324
260 260 260 260 261 262 262 260 257 257 258 259 260 261 262 264 264 265 265 263 262 261 261 261 262 263 263 263 263 263 264 266 267 268 267 267 268 270 271 273 273 273 274 276 278 280 282 281 281 281 282 284 288 289 285 281 280 281 283 286 286 285 285 286 287 286 284 283 283 286 291 295 298 294 289 288 290 297 306 309 308 306 303 304 309 318 322 321
262 261 260 261 261 261 261 260 259 259 259 259 261 262 263 263 264 265 265 264 262 262 263 263 263 264 264 264 264 263 264 265 266 267 267 268 268 269 270 271 272 274 274 275 277 278 277 278 279 281 284 289 291 286 282 281 282 283 284 285 284 283 283 286 287 283 281 281 283 286 289 292 296 299 291 285 287 294 303 306 306 304 301 303 307 313 318 317
262 262 261 261 261 261 261 261 259 259 259 260 261 262 263 263 263 263 263 263 262 262 263 263 264 264 265 265 264 264 265 265 265 265 266 267 268 269 270 271 273 274 274 275 276 275 274 275 276 281 287 290 285 281 281 283 283 283 283 283 283 283 283 285 285 281 280 279 281 284 286 289 294 297 291 286 287 293 301 304 306 304 299 300 303 308 314 313
264 264 264 263 263 264 264 263 261 261 261 262 263 263 263 263 262 261 261 261 262 262 263 263 263 264 265 265 264 264 264 264 264 264 265 267 268 269 270 271 272 272 273 274 274 273 273 273 276 282 286 283 279 279 281 281 281 281 282 282 283 282 282 283 281 279 279 280 281 283 283 287 292 293 287 284 287 292 299 303 306 302 297 298 299 303 308 309
268 268 268 267 266 266 266 265 264 264 264 264 264 264 263 263 262 262 262 262 263 264 264 264 264 265 265 265 265 264 264 264 265 265 266 267 268 268 269 270 271 272 273 272 271 272 273 274 278 282 281 278 278 279 279 279 279 279 280 281 281 281 282 281 279 278 278 280 283 284 284 285 289 289 284 283 287 290 295 301 304 299 294 295 296 299 303 306
268 269 270 270 270 269 269 268 267 266 266 266 266 264 262 263 264 264 263 263 263 265 265 265 266 267 267 266 266 265 265 265 265 266 267 267 267 267 267 268 270 271 271 269 271 273 274 275 278 277 276 277 278 278 277 277 277 278 279 279 279 280 281 279 278 279 278 279 282 284 284 285 286 285 281 282 287 289 291 297 299 294 292 294 295 297 300 304
261 263 265 268 269 270 270 270 270 269 268 267 267 264 262 263 265 265 265 265 263 263 266 266 267 267 267 266 266 266 266 267 266 266 267 267 268 267 267 268 269 269 268 270 272 274 275 276 276 276 276 277 276 275 275 275 276 277 277 277 277 279 279 277 278 278 278 280 282 283 284 285 285 283 280 281 286 287 289 294 293 288 288 291 293 295 298 301
256 257 259 261 263 265 266 267 268 269 270 269 268 265 263 264 266 265 266 266 264 263 266 268 268 269 267 265 265 265 267 269 270 268 267 267 267 266 267 268 268 268 270 273 274 274 275 276 276 276 277 276 275 274 274 275 275 275 275 275 276 276 277 278 279 278 277 278 280 283 285 286 286 284 282 283 285 286 288 290 286 281 283 287 290 292 294 296
255 255 256 257 258 259 260 260 262 263 265 266 265 262 261 263 264 266 268 269 269 268 270 270 270 270 268 266 264 263 266 270 271 269 265 265 264 265 267 267 267 269 272 274 274 274 275 276 276 276 276 275 274 274 275 276 275 274 273 274 274 274 275 277 278 279 279 277 277 279 284 287 287 284 284 286 286 285 287 288 281 275 278 283 286 287 289 293
256 256 257 257 256 257 256 256 256 256 257 258 258 257 256 257 260 264 268 270 271 272 273 273 271 270 269 267 265 265 268 272 272 269 266 264 263 263 264 265 267 271 274 275 274 275 277 277 276 275 274 273 274 276 277 275 273 273 274 273 272 272 274 277 277 278 279 280 279 277 280 286 287 286 286 285 284 284 285 285 283 280 280 281 283 284 286 290
255 255 256 256 256 256 256 255 254 254 254 254 255 255 255 255 255 257 260 263 268 271 272 272 270 269 268 266 265 268 272 275 273 269 266 263 260 260 261 264 268 272 274 274 274 276 278 276 274 273 273 274 275 276 275 273 273 275 275 272 271 272 274 275 275 276 277 279 281 279 279 284 287 289 290 285 282 280 277 279 282 283 283 283 283 283 285 287
254 254 254 254 255 255 256 256 255 254 253 254 255 256 256 256 255 256 257 258 264 268 269 271 269 267 265 265 266 269 272 275 273 268 264 261 260 259 261 265 268 270 272 272 274 277 277 275 273 272 273 274 274 273 272 272 273 274 273 272 272 272 273 273 273 274 274 276 279 280 280 283 286 290 291 289 286 278 271 272 277 280 282 284 285 284 284 285
254 255 254 255 255 255 255 256 256 255 254 255 257 258 259 258 256 258 258 257 262 266 267 269 268 267 266 265 266 268 270 272 270 267 264 261 261 261 263 266 268 270 271 273 275 276 274 274 273 273 272 272 271 271 271 272 273 273 273 272 272 272 272 272 272 272 272 274 279 282 281 282 286 287 288 291 292 282 273 271 271 274 278 283 285 285 285 285
256 256 256 257 257 257 257 257 257 257 256 257 259 260 262 261 259 258 256 257 261 264 266 266 266 266 266 265 265 266 268 269 268 265 262 261 261 263 265 267 269 271 272 273 274 273 272 272 272 272 271 270 270 270 272 272 272 272 272 272 272 272 272 271 270 271 270 273 279 280 279 280 283 286 288 291 292 286 281 274 268 267 272 278 281 283 285 286
256 257 257 258 258 258 259 259 259 259 258 258 260 261 262 262 260 257 255 257 260 261 262 263 263 264 265 264 265 266 266 266 264 262 261 261 263 265 267 269 270 271 271 271 272 271 271 272 272 271 270 269 269 270 270 270 270 270 271 271 271 271 271 270 270 270 270 273 277 276 276 276 279 284 288 289 290 289 287 278 269 268 271 275 277 279 283 285
256 256 257 257 258 259 259 260 260 260 260 260 260 260 260 260 259 256 255 257 260 258 258 260 261 264 266 266 266 266 266 264 262 261 262 263 265 266 268 269 269 270 270 272 272 270 269 270 270 269 268 269 269 268 268 268 268 268 268 268 269 269 270 270 270 270 270 273 274 274 275 275 278 283 285 286 288 289 287 281 274 272 273 275 275 277 280 283
254 255 256 256 257 257 257 258 258 259 260 260 260 260 260 259 257 257 257 258 259 259 259 260 262 265 268 269 269 268 267 266 265 265 266 267 267 268 268 269 270 270 271 271 270 268 267 266 266 267 268 269 269 269 268 268 267 267 267 268 268 268 269 270 271 273 273 274 273 273 274 276 280 284 284 286 287 286 285 282 279 278 277 276 275 276 277 279
254 254 255 255 255 256 256 256 256 257 258 258 259 258 258 259 260 260 260 260 261 262 263 263 265 267 268 269 270 271 271 270 269 270 270 270 270 270 270 271 271 270 270 269 268 268 268 266 266 267 267 267 269 269 269 268 268 268 268 268 268 269 271 273 274 274 274 275 274 274 275 277 281 283 284 286 285 284 283 282 282 281 280 278 276 276 276 278
255 255 255 255 255 255 255 256 256 256 256 257 258 256 256 261 264 265 265 266 267 267 265 264 264 266 268 269 270 272 273 274 274 274 274 273 272 271 270 270 270 271 270 270 271 271 270 268 266 266 265 265 267 268 269 270 269 269 268 268 270 272 274 274 274 274 275 275 275 275 276 278 280 281 282 283 284 285 285 283 282 281 280 278 277 277 278 279
255 255 256 256 256 256 256 256 256 256 256 257 257 256 257 263 268 268 268 268 268 267 266 265 265 266 268 270 271 272 274 275 274 274 274 274 273 272 271 271 272 272 272 273 274 274 272 271 268 267 266 265 265 266 267 269 269 269 269 271 274 275 274 274 275 275 275 275 274 275 276 278 278 278 279 282 285 286 285 283 280 278 277 277 278 279 279 278
255 255 256 256 257 257 257 258 257 257 257 256 256 257 259 263 266 265 265 266 266 266 267 267 267 267 268 269 270 271 272 273 273 272 273 273 272 272 272 272 273 274 275 277 277 275 274 272 270 270 270 269 267 266 265 266 268 270 271 274 276 276 276 276 276 275 275 275 274 274 275 275 276 278 282 285 285 284 283 281 278 276 275 276 277 277 277 276
256 255 255 256 256 257 257 257 257 257 256 256 257 258 260 262 264 264 264 265 265 266 266 266 266 266 266 267 268 268 269 270 271 272 272 271 271 272 272 272 273 274 275 276 275 274 274 275 273 272 272 271 270 269 268 267 268 270 273 275 276 276 276 275 275 275 275 274 273 272 272 273 276 282 286 286 283 281 279 278 277 276 275 275 275 274 275 276
256 256 256 257 257 256 256 256 256 256 255 256 258 260 261 263 263 263 263 263 264 265 266 266 267 266 266 266 266 266 266 267 268 269 270 270 270 271 272 272 272 273 273 273 273 274 274 274 273 271 271 272 271 270 270 271 272 274 275 274 273 273 274 273 273 273 272 272 272 272 273 276 281 284 285 283 280 278 276 275 275 275 274 274 273 273 273 273
257 257 257 258 258 258 258 257 257 256 256 257 259 261 262 263 261 260 261 262 263 264 266 266 267 267 266 266 265 265 265 265 266 266 267 268 269 270 271 271 271 271 271 270 271 271 271 271 272 272 271 271 270 270 272 273 274 273 271 270 270 270 271 271 270 270 270 270 271 274 276 278 281 282 281 280 278 275 275 274 274 273 272 271 271 271 271 270
258 257 257 258 259 258 259 259 258 259 260 259 260 261 261 260 260 260 260 261 261 263 264 265 265 266 267 267 266 266 265 265 265 266 266 266 267 268 269 269 270 270 269 268 268 269 270 271 271 270 269 269 270 271 271 272 271 270 270 270 270 270 269 269 270 271 273 274 276 278 277 276 278 279 279 279 277 276 275 274 272 271 270 269 268 268 268 267
259 259 258 258 258 258 258 259 259 260 261 261 262 262 262 261 261 260 260 259 259 260 261 262 263 264 265 266 267 267 267 266 266 266 267 266 266 267 267 267 268 268 267 267 267 267 268 268 268 267 268 270 271 271 270 270 270 269 268 268 267 267 268 270 273 276 277 276 276 275 273 273 277 279 278 277 275 274 274 273 272 271 270 270 269 268 268 268
261 260 260 259 259 259 259 259 260 261 262 263 263 263 263 263 262 261 261 261 261 260 260 260 262 263 264 265 266 266 266 267 266 266 267 267 266 266 267 267 267 267 267 267 268 268 268 268 268 269 270 270 270 270 269 269 269 267 267 267 267 269 271 273 274 273 272 270 271 272 271 273 276 276 275 275 274 272 273 273 272 272 271 270 269 270 270 269
263 261 261 261 261 261 260 260 261 262 263 263 263 262 262 262 262 261 262 262 263 262 262 261 262 262 263 263 263 264 265 266 267 267 267 268 267 267 267 267 267 267 267 267 269 269 269 268 269 269 269 268 268 267 268 268 269 270 271 272 272 272 271 270 269 269 268 269 270 270 270 272 275 274 272 273 273 273 273 272 271 270 270 269 269 269 269 269
264 263 262 262 263 263 262 263 263 263 263 264 264 263 263 262 262 262 262 262 262 263 264 263 263 263 262 262 262 263 263 264 265 266 266 267 268 268 268 268 268 268 268 268 269 269 268 267 267 267 267 268 268 268 269 271 272 272 272 272 271 270 268 267 267 266 266 267 267 267 268 272 274 272 270 271 273 273 272 270 269 268 267 267 267 266 266 269
264 264 263 263 264 264 264 264 264 264 264 265 265 264 264 264 264 263 263 262 262 263 264 263 263 262 262 262 263 263 262 263 264 264 264 265 265 265 265 265 266 266 267 267 268 268 268 267 266 267 267 269 271 272 272 271 270 269 269 269 269 268 267 266 265 264 266 268 267 266 269 271 271 271 271 270 271 271 270 270 269 267 266 265 265 264 266 269
264 264 264 265 265 265 265 265 265 266 266 265 264 264 264 264 264 263 263 263 263 262 262 262 261 262 262 262 262 262 262 262 263 263 264 264 264 264 263 263 263 263 263 263 262 261 262 263 263 264 265 266 268 270 269 268 268 269 269 269 269 268 266 264 263 264 267 268 267 268 270 271 271 271 270 268 267 269 270 269 268 267 267 266 265 265 267 269
263 264 265 266 265 266 266 266 266 265 265 264 263 264 263 263 263 263 263 263 263 262 261 261 261 261 261 261 261 261 261 262 262 263 263 264 264 264 264 264 264 263 263 262 261 259 258 258 259 261 261 261 260 260 261 262 264 266 268 268 268 267 265 264 264 266 267 266 267 270 270 269 269 269 269 270 271 271 269 266 265 266 268 269 269 268 269 271
263 264 265 266 266 266 267 266 265 265 264 264 263 263 263 263 263 264 263 262 261 261 261 261 261 260 260 260 260 260 261 261 261 262 263 264 264 264 264 263 263 263 263 263 263 262 261 260 260 261 261 260 258 257 257 258 260 262 263 265 266 266 265 265 266 267 267 266 268 269 268 267 269 271 272 274 274 271 267 265 265 265 267 268 269 270 271 273
262 263 264 265 265 265 265 265 265 264 264 264 263 263 263 263 263 262 261 260 260 260 260 259 260 259 259 259 259 259 259 260 260 260 260 261 262 263 263 263 262 262 262 262 262 263 262 262 262 262 261 261 262 262 260 259 259 259 258 259 261 263 265 265 266 267 267 267 268 269 268 269 270 272 273 273 271 268 266 266 266 265 265 266 268 268 269 270
261 262 262 262 262 263 263 263 263 263 263 263 264 264 265 264 263 262 260 258 258 258 258 258 258 258 258 258 258 257 258 257 257 258 258 258 259 260 260 261 261 261 261 261 261 262 263 263 263 263 261 262 263 264 263 262 260 257 256 256 258 261 263 265 267 268 268 269 270 269 269 271 274 274 273 271 269 267 266 267 266 265 264 265 265 265 265 265
259 259 259 260 260 260 260 260 261 261 261 262 263 264 264 263 263 262 260 259 258 258 257 256 256 256 255 255 256 256 256 256 256 257 257 257 257 257 258 258 259 259 259 260 260 261 262 262 263 263 263 263 264 265 265 264 260 257 257 260 262 263 264 264 265 265 267 268 269 269 271 274 275 272 268 267 267 267 267 266 265 265 264 263 262 262 262 262
Height
5785 5786 5786 5787 5787 5788 5788 5789 5790 5790 5790 5791 5791 5791 5792 5792 5792 5793 5793 5793 5794 5794 5794 5794 5795 5795 5795 5794 5793 5793 5793 5793 5792 5792 5794 5794 5791 5791 5792 5791 5790 5789 5789 5789 5789 5788 5787 5787 5786 5786 5786 5785 5785 5785 5785 5784 5784 5783 5782 5781 5778 5779 5778 5776 5777 5777 5778 5778 5776 5773 5772 5773 5772 5771 5771 5770 5767 5764 5763 5762 5759 5758 5755 5754 5751 5749 5746 5743
5782 5782 5783 5783 5784 5784 5785 5786 5786 5787 5787 5787 5788 5788 5789 5789 5789 5790 5790 5790 5791 5791 5791 5792 5792 5792 5792 5792 5791 5791 5791 5790 5790 5790 5792 5792 5789 5789 5789 5789 5788 5787 5787 5787 5787 5786 5786 5785 5784 5784 5783 5783 5783 5782 5782 5782 5782 5781 5780 5779 5776 5777 5776 5773 5775 5774 5774 5776 5775 5772 5770 5769 5768 5769 5769 5769 5767 5763 5761 5760 5758 5756 5753 5751 5748 5746 5743 5740
5778 5779 5779 5780 5780 5781 5781 5782 5783 5784 5784 5784 5785 5785 5786 5786 5786 5787 5787 5787 5788 5788 5788 5789 5789 5790 5790 5789 5789 5789 5788 5788 5788 5788 5789 5789 5787 5786 5786 5786 5786 5785 5785 5784 5785 5784 5784 5783 5782 5782 5781 5780 5780 5780 5779 5779 5780 5779 5778 5777 5775 5775 5773 5770 5772 5772 5771 5773 5773 5771 5769 5766 5765 5765 5765 5765 5766 5762 5760 5759 5756 5754 5751 5749 5745 5743 5740 5737
5774 5775 5776 5776 5777 5777 5778 5778 5779 5780 5780 5781 5781 5782 5782 5783 5783 5783 5784 5784 5784 5785 5785 5786 5786 5787 5787 5787 5786 5786 5785 5785 5785 5786 5787 5786 5785 5784 5784 5783 5783 5782 5782 5782 5782 5782 5782 5781 5780 5780 5779 5778 5777 5777 5776 5776 5777 5777 5775 5774 5773 5774 5772 5767 5769 5769 5768 5769 5769 5769 5768 5765 5763 5763 5761 5761 5762 5761 5758 5756 5754 5753 5750 5747 5743 5740 5738 5735
5771 5771 5772 5772 5773 5774 5774 5775 5775 5776 5776 5777 5778 5778 5779 5779 5780 5780 5781 5781 5781 5782 5782 5782 5783 5783 5784 5784 5783 5783 5782 5782 5783 5784 5784 5783 5782 5782 5782 5781 5780 5780 5779 5780 5780 5780 5779 5779 5778 5777 5777 5776 5775 5774 5773 5773 5774 5774 5773 5771 5771 5771 5770 5766 5766 5766 5766 5766 5766 5766 5767 5763 5761 5761 5759 5758 5759 5758 5757 5754 5752 5751 5749 5746 5742 5738 5735 5732
5766 5767 5768 5769 5769 5770 5770 5771 5772 5772 5773 5773 5774 5774 5775 5775 5776 5777 5777 5777 5778 5779 5779 5779 5779 5780 5781 5781 5780 5779 5778 5778 5780 5782 5781 5779 5779 5779 5779 5779 5778 5777 5777 5777 5777 5776 5776 5776 5775 5775 5775 5773 5772 5772 5771 5771 5771 5772 5770 5768 5768 5768 5768 5765 5764 5763 5763 5764 5763 5763 5764 5760 5758 5759 5758 5756 5757 5756 5754 5752 5749 5748 5746 5744 5741 5738 5735 5731
5762 5762 5763 5764 5765 5766 5766 5767 5768 5768 5769 5769 5770 5770 5771 5771 5772 5773 5773 5774 5775 5775 5776 5776 5776 5776 5777 5778 5777 5776 5774 5774 5778 5778 5777 5776 5776 5776 5776 5776 5775 5775 5774 5774 5773 5773 5773 5773 5772 5772 5772 5771 5770 5769 5767 5768 5768 5768 5768 5766 5766 5765 5764 5763 5762 5761 5760 5760 5760 5761 5762 5758 5754 5756 5756 5754 5755 5754 5752 5750 5747 5746 5744 5741 5738 5736 5733 5730
5757 5758 5758 5759 5760 5761 5762 5762 5763 5764 5764 5765 5766 5766 5767 5767 5768 5769 5769 5770 5771 5772 5772 5772 5773 5772 5773 5774 5774 5773 5770 5770 5774 5775 5774 5773 5773 5773 5773 5773 5773 5772 5772 5771 5770 5770 5770 5769 5769 5769 5769 5768 5768 5766 5764 5764 5764 5764 5765 5764 5764 5763 5761 5761 5760 5758 5757 5757 5757 5759 5760 5756 5751 5751 5754 5753 5752 5752 5750 5747 5745 5744 5742 5738 5736 5733 5731 5729
5752 5753 5754 5755 5755 5756 5757 5758 5758 5759 5760 5760 5761 5761 5762 5763 5764 5764 5765 5766 5767 5768 5768 5769 5769 5769 5770 5770 5771 5771 5766 5765 5770 5772 5771 5770 5769 5769 5769 5770 5770 5769 5769 5768 5767 5767 5767 5766 5766 5766 5766 5766 5765 5764 5762 5761 5761 5761 5760 5761 5762 5761 5759 5757 5757 5755 5754 5754 5754 5757 5759 5754 5749 5748 5749 5750 5750 5749 5747 5744 5742 5741 5739 5736 5733 5731 5729 5727
5747 5748 5749 5750 5751 5752 5752 5753 5754 5755 5755 5756 5757 5757 5758 5758 5759 5760 5761 5762 5762 5763 5764 5765 5765 5765 5766 5766 5769 5768 5761 5762 5766 5767 5767 5766 5766 5766 5766 5767 5766 5766 5765 5765 5764 5764 5764 5763 5763 5762 5762 5763 5762 5761 5759 5758 5758 5758 5757 5757 5757 5757 5757 5754 5753 5753 5750 5750 5750 5754 5758 5753 5748 5745 5745 5747 5747 5746 5745 5742 5739 5737 5736 5733 5731 5729 5727 5725
5742 5743 5744 5745 5746 5747 5748 5748 5749 5750 5750 5751 5752 5752 5753 5754 5755 5755 5756 5757 5758 5759 5759 5761 5761 5762 5762 5763 5766 5762 5757 5760 5763 5761 5762 5763 5763 5763 5763 5763 5762 5762 5761 5761 5761 5761 5760 5759 5759 5758 5758 5759 5759 5758 5757 5756 5755 5755 5753 5754 5754 5753 5754 5752 5749 5750 5747 5746 5746 5749 5755 5752 5747 5742 5739 5742 5745 5744 5743 5740 5736 5734 5733 5731 5729 5727 5725 5722
5736 5738 5739 5740 5740 5742 5742 5743 5744 5745 5745 5746 5747 5748 5748 5749 5750 5750 5751 5752 5753 5754 5755 5756 5757 5758 5759 5760 5760 5755 5754 5758 5758 5757 5758 5758 5760 5759 5759 5759 5758 5758 5758 5757 5757 5757 5756 5756 5756 5755 5754 5755 5755 5755 5753 5753 5752 5751 5749 5749 5752 5751 5751 5750 5746 5746 5744 5742 5741 5743 5750 5751 5746 5741 5735 5735 5740 5741 5741 5738 5734 5732 5730 5728 5727 5725 5723 5720
5731 5732 5733 5734 5735 5736 5737 5738 5739 5740 5740 5741 5742 5743 5743 5744 5745 5745 5746 5748 5748 5749 5750 5751 5752 5753 5755 5757 5754 5750 5752 5755 5754 5753 5753 5754 5756 5755 5754 5755 5755 5754 5754 5753 5753 5753 5752 5752 5752 5751 5751 5751 5751 5750 5750 5750 5749 5747 5745 5743 5747 5749 5749 5747 5744 5743 5741 5738 5736 5736 5744 5749 5745 5740 5734 5732 5734 5737 5739 5736 5732 5730 5728 5726 5725 5724 5722 5718
5726 5727 5728 5729 5730 5731 5732 5733 5733 5734 5735 5736 5737 5737 5738 5739 5739 5740 5741 5743 5744 5745 5745 5746 5747 5748 5750 5752 5749 5746 5748 5750 5750 5749 5749 5751 5751 5750 5750 5751 5751 5750 5750 5749 5749 5748 5748 5748 5748 5748 5748 5747 5747 5746 5747 5747 5745 5743 5741 5738 5741 5745 5747 5745 5742 5741 5739 5735 5733 5731 5737 5746 5745 5739 5734 5731 5730 5732 5736 5735 5731 5728 5726 5724 5724 5722 5720 5717
5721 5722 5722 5723 5724 5725 5726 5727 5728 5729 5730 5730 5731 5732 5732 5733 5734 5735 5736 5737 5738 5739 5740 5740 5742 5743 5745 5747 5745 5743 5743 5743 5745 5745 5745 5746 5745 5746 5746 5746 5746 5746 5746 5745 5745 5744 5744 5744 5744 5744 5744 5744 5743 5743 5743 5743 5741 5738 5735 5735 5738 5740 5742 5742 5739 5738 5736 5732 5730 5727 5730 5741 5744 5737 5733 5730 5727 5728 5732 5732 5729 5726 5724 5722 5722 5720 5717 5715
5716 5717 5717 5718 5719 5720 5720 5721 5722 5723 5724 5725 5725 5726 5727 5727 5728 5729 5730 5732 5732 5733 5734 5735 5736 5738 5740 5742 5741 5740 5739 5738 5739 5741 5741 5741 5740 5741 5741 5741 5742 5742 5742 5741 5740 5740 5740 5739 5739 5739 5739 5740 5740 5740 5739 5737 5736 5733 5730 5732 5735 5735 5735 5737 5736 5734 5731 5728 5726 5725 5725 5733 5740 5737 5732 5727 5723 5724 5728 5728 5726 5724 5722 5720 5719 5717 5715 5713
5710 5711 5712 5713 5714 5714 5715 5715 5716 5717 5718 5719 5719 5720 5721 5721 5722 5723 5724 5725 5726 5727 5728 5729 5731 5732 5734 5736 5736 5735 5735 5734 5734 5735 5736 5736 5736 5737 5736 5736 5737 5737 5737 5737 5736 5736 5735 5734 5733 5733 5734 5736 5738 5737 5733 5731 5731 5729 5728 5728 5730 5730 5730 5732 5734 5730 5726 5723 5722 5724 5722 5725 5733 5734 5731 5726 5720 5721 5724 5724 5724 5722 5719 5717 5716 5714 5712 5711
5705 5705 5706 5707 5708 5708 5709 5710 5710 5711 5711 5712 5713 5713 5714 5715 5716 5717 5717 5718 5720 5721 5722 5723 5725 5726 5728 5730 5730 5730 5730 5730 5730 5729 5729 5730 5731 5732 5731 5731 5731 5732 5732 5732 5733 5732 5730 5729 5728 5729 5731 5733 5734 5731 5727 5726 5726 5725 5725 5724 5724 5726 5726 5727 5729 5726 5722 5718 5717 5721 5721 5720 5728 5730 5728 5724 5718 5718 5721 5721 5721 5719 5716 5714 5713 5712 5710 5709
5699 5700 5700 5701 5702 5702 5703 5704 5704 5705 5705 5706 5707 5707 5708 5708 5709 5710 5710 5711 5713 5715 5716 5717 5718 5719 5721 5724 5724 5725 5726 5725 5724 5724 5724 5724 5725 5726 5726 5726 5727 5727 5727 5728 5728 5727 5725 5724 5724 5725 5729 5730 5727 5724 5723 5723 5722 5720 5720 5719 5719 5720 5722 5724 5724 5720 5717 5714 5714 5718 5718 5717 5723 5726 5724 5721 5716 5714 5717 5718 5718 5716 5713 5712 5711 5710 5708 5707
5694 5694 5695 5696 5696 5697 5697 5697 5698 5699 5700 5700 5701 5701 5701 5701 5702 5703 5704 5705 5707 5709 5710 5710 5711 5712 5714 5717 5718 5719 5719 5718 5718 5718 5719 5719 5720 5721 5721 5721 5721 5721 5722 5723 5721 5721 5721 5719 5721 5724 5726 5724 5720 5719 5720 5719 5717 5716 5715 5715 5714 5714 5717 5720 5719 5716 5713 5709 5710 5715 5714 5714 5719 5722 5720 5717 5713 5712 5713 5714 5714 5713 5711 5710 5709 5707 5706 5704
5688 5688 5689 5690 5691 5691 5692 5692 5693 5693 5694 5695 5695 5695 5695 5694 5695 5696 5697 5699 5701 5702 5703 5704 5703 5706 5709 5710 5711 5712 5712 5712 5712 5712 5714 5715 5715 5715 5715 5716 5716 5716 5717 5716 5714 5716 5716 5714 5718 5721 5719 5716 5715 5715 5715 5714 5713 5712 5711 5711 5710 5710 5711 5714 5713 5711 5710 5706 5705 5708 5708 5710 5714 5717 5716 5712 5710 5709 5709 5710 5711 5710 5708 5707 5706 5705 5703 5701
5682 5683 5683 5684 5685 5685 5686 5686 5687 5687 5687 5689 5689 5688 5688 5688 5689 5689 5690 5692 5696 5696 5696 5699 5698 5701 5704 5703 5704 5704 5704 5706 5707 5707 5708 5708 5709 5709 5710 5710 5711 5711 5711 5709 5710 5711 5710 5710 5714 5714 5712 5712 5712 5711 5709 5708 5708 5708 5708 5706 5705 5707 5706 5707 5708 5707 5705 5703 5702 5702 5701 5704 5710 5713 5712 5709 5707 5705 5705 5707 5708 5706 5705 5704 5703 5702 5700 5698
5677 5678 5678 5678 5679 5679 5680 5680 5681 5680 5681 5682 5683 5683 5682 5682 5683 5683 5682 5683 5689 5691 5691 5692 5693 5695 5697 5697 5697 5696 5696 5700 5702 5702 5702 5702 5703 5704 5704 5705 5705 5705 5704 5705 5706 5706 5704 5706 5708 5707 5706 5708 5707 5705 5704 5703 5703 5704 5703 5701 5701 5703 5701 5700 5702 5702 5701 5699 5698 5697 5695 5697 5705 5709 5708 5707 5705 5702 5701 5703 5704 5703 5702 5701 5700 5699 5697 5695
5670 5671 5671 5673 5673 5673 5674 5674 5675 5674 5673 5675 5676 5677 5677 5677 5676 5675 5674 5674 5679 5686 5688 5687 5687 5689 5690 5690 5690 5690 5691 5694 5696 5697 5697 5697 5697 5697 5698 5699 5698 5698 5700 5701 5702 5700 5699 5700 5701 5701 5702 5702 5700 5699 5699 5698 5699 5699 5697 5696 5697 5698 5696 5694 5695 5696 5697 5697 5695 5692 5689 5690 5698 5704 5705 5704 5702 5698 5697 5700 5700 5699 5699 5698 5697 5696 5694 5693
5664 5664 5665 5666 5666 5667 5668 5668 5668 5668 5668 5669 5670 5670 5669 5669 5667 5666 5667 5667 5670 5679 5682 5683 5682 5682 5682 5683 5684 5685 5685 5687 5689 5690 5691 5692 5691 5691 5692 5692 5691 5694 5696 5696 5696 5694 5694 5695 5696 5696 5696 5695 5693 5694 5695 5694 5693 5692 5692 5693 5693 5692 5691 5690 5690 5688 5690 5692 5692 5690 5684 5682 5690 5698 5701 5700 5698 5695 5693 5695 5695 5696 5696 5695 5694 5693 5692 5690
5656 5656 5657 5657 5659 5660 5660 5661 5663 5662 5663 5664 5663 5662 5662 5662 5659 5659 5661 5660 5664 5671 5674 5676 5677 5676 5676 5676 5677 5678 5677 5681 5684 5683 5684 5686 5686 5685 5685 5685 5686 5689 5690 5690 5689 5688 5690 5692 5691 5690 5689 5688 5688 5690 5691 5688 5686 5686 5688 5689 5688 5686 5686 5685 5685 5684 5683 5684 5686 5686 5682 5678 5680 5690 5698 5697 5693 5693 5691 5689 5690 5691 5692 5691 5690 5689 5688 5687
5648 5649 5649 5650 5651 5652 5653 5654 5656 5656 5657 5656 5655 5654 5655 5655 5654 5656 5657 5653 5658 5665 5666 5668 5670 5670 5671 5669 5671 5672 5670 5674 5677 5676 5679 5679 5679 5679 5679 5680 5682 5683 5684 5682 5681 5683 5686 5686 5685 5684 5683 5683 5684 5685 5684 5681 5679 5681 5683 5682 5681 5681 5681 5680 5679 5679 5678 5678 5678 5679 5680 5677 5673 5680 5690 5693 5690 5690 5689 5686 5685 5685 5686 5686 5686 5685 5684 5683
5641 5641 5642 5642 5643 5644 5645 5646 5648 5650 5649 5648 5647 5646 5646 5646 5647 5651 5650 5648 5654 5659 5659 5660 5660 5662 5665 5664 5666 5667 5665 5668 5669 5669 5672 5672 5672 5674 5674 5676 5676 5676 5677 5675 5675 5679 5679 5678 5678 5678 5678 5679 5679 5679 5677 5675 5674 5676 5676 5676 5676 5676 5675 5674 5674 5673 5672 5672 5672 5675 5677 5673 5671 5672 5678 5685 5686 5686 5685 5684 5683 5681 5681 5682 5681 5681 5680 5679
5633 5634 5635 5635 5635 5636 5637 5638 5640 5641 5641 5642 5639 5637 5638 5637 5640 5644 5641 5643 5652 5653 5654 5654 5650 5652 5659 5659 5659 5659 5660 5662 5662 5663 5665 5665 5666 5668 5669 5670 5670 5669 5670 5668 5670 5672 5671 5671 5672 5672 5672 5673 5672 5671 5671 5670 5670 5670 5670 5669 5670 5669 5669 5669 5667 5667 5666 5666 5667 5672 5673 5668 5667 5667 5669 5677 5681 5680 5681 5681 5680 5679 5678 5677 5676 5675 5675 5674
5626 5627 5628 5628 5628 5629 5630 5630 5631 5633 5634 5633 5630 5630 5631 5629 5633 5636 5633 5640 5649 5647 5647 5646 5643 5645 5648 5649 5650 5652 5654 5655 5656 5658 5658 5659 5660 5661 5662 5663 5663 5663 5663 5662 5664 5665 5664 5665 5666 5666 5666 5666 5665 5665 5665 5665 5665 5665 5664 5664 5663 5662 5663 5662 5661 5661 5659 5660 5665 5668 5668 5664 5662 5661 5664 5672 5674 5674 5677 5677 5676 5676 5675 5674 5673 5671 5670 5669
5620 5621 5621 5622 5622 5622 5623 5622 5624 5625 5625 5625 5624 5623 5624 5623 5625 5626 5629 5639 5643 5640 5639 5638 5637 5636 5635 5640 5643 5645 5647 5648 5650 5651 5651 5652 5653 5654 5656 5656 5656 5656 5655 5656 5658 5659 5658 5659 5660 5661 5660 5659 5659 5660 5660 5660 5659 5659 5658 5658 5658 5656 5655 5654 5655 5656 5652 5656 5661 5661 5660 5659 5657 5657 5661 5665 5667 5668 5671 5671 5671 5671 5670 5670 5669 5667 5666 5665
5614 5614 5615 5615 5615 5616 5616 5615 5616 5617 5616 5617 5616 5615 5616 5614 5615 5620 5630 5638 5634 5629 5632 5632 5631 5628 5626 5632 5636 5638 5640 5641 5642 5643 5643 5645 5645 5647 5649 5648 5649 5648 5648 5650 5652 5651 5652 5654 5654 5653 5653 5653 5654 5654 5654 5654 5654 5653 5652 5652 5651 5650 5649 5647 5647 5648 5648 5652 5655 5653 5652 5651 5651 5655 5658 5660 5661 5662 5664 5665 5665 5666 5665 5665 5664 5663 5662 5661
5607 5608 5608 5609 5609 5609 5609 5609 5609 5609 5608 5609 5607 5608 5608 5603 5608 5621 5628 5629 5624 5622 5626 5626 5625 5622 5621 5624 5627 5630 5633 5633 5634 5635 5635 5636 5637 5640 5641 5642 5643 5642 5643 5645 5644 5643 5645 5647 5648 5647 5647 5648 5647 5648 5647 5647 5647 5646 5646 5645 5645 5645 5642 5640 5642 5642 5642 5646 5647 5646 5644 5642 5645 5651 5652 5653 5656 5656 5657 5658 5658 5659 5659 5659 5659 5658 5658 5657
5600 5601 5601 5602 5603 5602 5602 5602 5602 5602 5601 5599 5598 5600 5597 5593 5607 5622 5621 5619 5618 5617 5620 5620 5618 5616 5615 5618 5620 5622 5624 5624 5625 5626 5627 5628 5629 5633 5636 5636 5637 5636 5637 5637 5636 5637 5637 5640 5643 5642 5641 5642 5641 5641 5640 5640 5640 5639 5640 5638 5637 5639 5637 5635 5637 5636 5635 5637 5637 5637 5636 5635 5640 5645 5645 5646 5648 5649 5651 5652 5651 5652 5651 5651 5652 5652 5652 5652
5592 5593 5593 5595 5595 5594 5595 5594 5594 5596 5593 5591 5590 5589 5587 5590 5607 5617 5612 5613 5613 5608 5610 5611 5610 5609 5608 5612 5614 5615 5615 5614 5617 5617 5617 5620 5622 5625 5629 5629 5630 5630 5630 5630 5630 5631 5628 5631 5637 5635 5634 5637 5636 5635 5634 5634 5633 5632 5633 5631 5631 5635 5633 5630 5630 5630 5629 5628 5628 5629 5627 5630 5635 5637 5639 5640 5640 5642 5644 5645 5646 5645 5644 5643 5644 5645 5646 5646
5583 5585 5585 5586 5585 5586 5588 5587 5588 5588 5585 5584 5580 5578 5582 5591 5605 5608 5604 5607 5603 5596 5599 5601 5603 5604 5603 5607 5608 5609 5608 5606 5608 5608 5608 5611 5613 5616 5620 5622 5624 5623 5624 5625 5624 5623 5621 5622 5627 5626 5627 5630 5629 5629 5629 5627 5626 5625 5626 5627 5628 5628 5626 5624 5622 5624 5623 5618 5620 5622 5620 5624 5628 5629 5634 5637 5635 5637 5637 5637 5639 5638 5637 5638 5638 5639 5639 5639
5575 5576 5578 5577 5576 5579 5580 5579 5579 5578 5577 5575 5569 5572 5582 5591 5599 5598 5596 5599 5593 5587 5591 5593 5596 5600 5598 5599 5601 5603 5602 5598 5599 5600 5600 5603 5603 5607 5613 5615 5615 5616 5618 5619 5616 5615 5613 5612 5616 5618 5618 5621 5622 5622 5622 5621 5620 5619 5620 5623 5623 5619 5619 5619 5614 5615 5616 5610 5612 5616 5614 5617 5620 5622 5630 5634 5632 5632 5631 5630 5631 5632 5632 5633 5633 5632 5631 5631
5565 5567 5569 5568 5567 5571 5572 5569 5569 5569 5568 5564 5561 5570 5580 5585 5592 5591 5589 5592 5585 5579 5584 5584 5587 5591 5590 5590 5594 5598 5596 5591 5591 5591 5591 5593 5594 5600 5606 5607 5608 5610 5612 5611 5605 5607 5606 5602 5607 5611 5610 5611 5612 5612 5613 5615 5615 5615 5616 5617 5616 5613 5612 5612 5607 5607 5608 5603 5602 5607 5607 5609 5615 5620 5625 5627 5626 5625 5625 5624 5624 5625 5627 5626 5626 5625 5624 5624
5555 5557 5560 5559 5558 5561 5562 5560 5560 5558 5555 5554 5557 5567 5575 5581 5587 5585 5581 5582 5577 5573 5575 5575 5578 5581 5581 5583 5586 5588 5587 5585 5584 5583 5582 5583 5585 5593 5599 5600 5601 5603 5604 5601 5597 5600 5599 5593 5595 5602 5602 5601 5602 5603 5605 5607 5609 5609 5610 5609 5608 5607 5604 5603 5601 5600 5599 5595 5593 5597 5599 5604 5613 5618 5619 5619 5618 5617 5617 5618 5618 5619 5621 5620 5618 5618 5617 5618
5545 5548 5550 5550 5548 5550 5551 5550 5549 5546 5545 5549 5555 5562 5570 5574 5576 5576 5574 5574 5571 5568 5568 5569 5571 5570 5571 5575 5576 5578 5579 5576 5576 5576 5575 5576 5579 5585 5591 5592 5593 5595 5596 5593 5590 5592 5590 5584 5585 5592 5593 5590 5591 5596 5598 5601 5603 5601 5600 5600 5600 5600 5597 5594 5593 5592 5591 5588 5588 5590 5590 5597 5609 5613 5612 5612 5611 5611 5611 5612 5613 5613 5614 5614 5613 5612 5610 5611
5533 5537 5542 5541 5537 5540 5542 5538 5538 5538 5537 5542 5550 5557 5561 5562 5564 5568 5570 5568 5565 5563 5563 5562 5562 5561 5562 5564 5566 5569 5569 5567 5567 5567 5566 5570 5575 5577 5583 5585 5585 5586 5585 5583 5583 5584 5581 5577 5577 5580 5581 5579 5583 5590 5590 5591 5593 5591 5590 5591 5592 5592 5589 5585 5582 5585 5586 5582 5583 5584 5579 5587 5603 5607 5607 5606 5605 5606 5606 5605 5607 5607 5607 5608 5607 5606 5604 5603
5520 5526 5533 5529 5525 5530 5532 5527 5530 5531 5528 5534 5544 5548 5549 5551 5556 5560 5560 5559 5558 5558 5556 5553 5553 5555 5555 5555 5558 5559 5558 5557 5558 5558 5557 5562 5567 5570 5574 5577 5575 5576 5576 5573 5575 5577 5573 5568 5566 5567 5571 5573 5576 5580 5580 5580 5582 5581 5578 5581 5583 5582 5582 5580 5576 5579 5581 5574 5575 5575 5566 5576 5598 5604 5601 5599 5599 5602 5600 5599 5601 5601 5602 5602 5600 5599 5597 5596
5509 5516 5519 5515 5513 5520 5520 5518 5523 5523 5521 5529 5536 5536 5538 5541 5545 5549 5549 5550 5550 5548 5547 5546 5547 5548 5548 5549 5550 5549 5548 5546 5546 5550 5552 5553 5557 5562 5565 5566 5565 5567 5567 5565 5566 5568 5564 5559 5558 5559 5562 5565 5566 5567 5569 5569 5569 5566 5565 5570 5575 5575 5577 5577 5570 5570 5568 5563 5567 5566 5553 5565 5592 5599 5595 5591 5592 5596 5596 5594 5595 5595 5595 5596 5593 5593 5592 5590
5497 5502 5503 5501 5502 5507 5508 5510 5516 5514 5514 5521 5523 5524 5529 5530 5532 5538 5541 5541 5539 5536 5536 5539 5541 5540 5540 5542 5541 5540 5540 5538 5536 5542 5544 5542 5545 5552 5555 5555 5555 5557 5559 5558 5558 5558 5553 5549 5550 5550 5549 5551 5554 5556 5558 5559 5557 5554 5557 5563 5566 5568 5570 5566 5561 5559 5554 5553 5562 5556 5542 5556 5583 5591 5588 5584 5583 5589 5591 5589 5589 5589 5588 5588 5587 5586 5585 5584
5483 5486 5489 5491 5491 5493 5496 5502 5506 5503 5504 5509 5510 5513 5518 5517 5522 5531 5532 5531 5530 5526 5526 5529 5531 5530 5530 5531 5531 5531 5533 5532 5529 5531 5534 5533 5535 5540 5544 5545 5546 5547 5549 5550 5549 5546 5541 5539 5541 5540 5537 5537 5541 5546 5551 5553 5550 5546 5548 5553 5555 5557 5557 5554 5552 5549 5542 5545 5552 5544 5537 5552 5571 5579 5580 5578 5577 5580 5584 5582 5581 5581 5580 5581 5581 5580 5579 5579
5468 5470 5476 5481 5480 5480 5485 5492 5494 5491 5495 5499 5496 5500 5505 5506 5514 5521 5519 5519 5521 5519 5516 5517 5518 5517 5518 5521 5521 5520 5523 5523 5521 5521 5523 5525 5526 5530 5534 5535 5537 5539 5539 5540 5541 5537 5530 5528 5532 5531 5528 5527 5531 5538 5544 5544 5538 5536 5539 5542 5544 5546 5546 5544 5540 5534 5535 5538 5536 5533 5539 5546 5555 5567 5573 5573 5571 5572 5575 5575 5573 5572 5572 5573 5574 5573 5574 5575
5452 5456 5465 5471 5469 5466 5471 5480 5482 5480 5484 5486 5482 5486 5494 5497 5501 5508 5508 5507 5509 5510 5505 5503 5506 5507 5508 5511 5510 5508 5511 5513 5512 5511 5512 5514 5517 5518 5521 5524 5527 5530 5531 5530 5532 5530 5521 5518 5523 5523 5520 5522 5525 5529 5534 5532 5527 5527 5529 5531 5533 5535 5535 5533 5526 5526 5533 5528 5516 5525 5539 5536 5539 5555 5563 5564 5566 5566 5568 5568 5564 5562 5564 5564 5566 5566 5567 5568
5440 5444 5454 5458 5455 5454 5458 5466 5470 5468 5467 5469 5468 5473 5482 5485 5487 5494 5500 5497 5493 5496 5494 5491 5496 5498 5497 5498 5497 5496 5500 5502 5501 5502 5501 5502 5505 5506 5509 5514 5517 5520 5521 5519 5519 5520 5513 5508 5514 5515 5512 5515 5518 5519 5523 5523 5519 5520 5520 5520 5522 5524 5523 5521 5518 5522 5526 5515 5506 5520 5529 5523 5528 5543 5550 5555 5562 5562 5559 5556 5554 5555 5556 5557 5557 5558 5559 5560
5431 5433 5441 5444 5441 5442 5446 5451 5453 5452 5452 5454 5455 5459 5467 5473 5475 5482 5487 5484 5478 5481 5483 5480 5483 5486 5484 5486 5486 5485 5489 5490 5489 5492 5493 5490 5491 5493 5496 5500 5505 5508 5509 5507 5508 5509 5502 5498 5506 5508 5502 5503 5507 5508 5512 5513 5510 5510 5511 5511 5512 5513 5513 5512 5510 5513 5514 5505 5504 5513 5513 5511 5521 5533 5539 5547 5553 5553 5547 5543 5546 5549 5549 5548 5547 5548 5550 5552
5423 5426 5431 5431 5427 5430 5434 5434 5436 5437 5439 5440 5439 5444 5454 5460 5464 5469 5471 5468 5465 5467 5471 5470 5470 5472 5472 5474 5475 5473 5476 5478 5475 5477 5482 5480 5478 5481 5482 5484 5491 5496 5495 5496 5497 5498 5494 5489 5495 5499 5492 5490 5497 5499 5499 5501 5499 5497 5500 5503 5505 5504 5503 5502 5501 5503 5502 5497 5500 5505 5499 5500 5514 5525 5531 5536 5539 5539 5536 5533 5537 5540 5539 5539 5538 5539 5542 5542
5415 5416 5419 5417 5413 5417 5420 5420 5422 5423 5424 5426 5427 5433 5442 5444 5449 5454 5452 5453 5454 5454 5458 5460 5458 5458 5459 5461 5463 5462 5462 5464 5461 5462 5467 5467 5465 5470 5470 5470 5476 5480 5482 5485 5486 5487 5486 5480 5482 5488 5479 5475 5488 5492 5486 5487 5485 5480 5483 5491 5497 5496 5493 5492 5493 5494 5494 5492 5493 5493 5487 5490 5506 5518 5520 5522 5524 5524 5525 5526 5526 5527 5529 5530 5529 5530 5532 5532
5404 5403 5406 5404 5399 5402 5406 5406 5409 5410 5410 5416 5421 5423 5425 5428 5433 5435 5433 5438 5443 5442 5443 5446 5445 5445 5445 5446 5451 5452 5449 5449 5449 5449 5450 5450 5452 5456 5458 5458 5462 5465 5468 5473 5474 5475 5476 5470 5471 5475 5465 5461 5477 5482 5476 5474 5465 5459 5470 5481 5486 5488 5486 5484 5484 5485 5487 5487 5482 5479 5479 5487 5499 5504 5503 5506 5510 5511 5514 5517 5517 5515 5517 5518 5518 5520 5522 5521